EW1065 Weather Reports


Display with metric or nautical units.
time (UTC)temp
F
wind
direction
speed
MPH
gust
MPH
rain 1hr
in
rain 24hr
in
rain mn
in
humidity
%
barometer
mb
20260507185020 61 315 2.0 7.0 0.00 0.00 0.00 41 1015.4
20260507184039 61 338 2.0 5.0 0.00 0.00 0.00 44 1015.5
20260507183018 61 315 2.0 5.0 0.00 0.00 0.00 46 1015.5
20260507182020 61 45 1.0 4.0 0.00 0.00 0.00 40 1015.4
20260507181020 61 90 1.0 4.0 0.00 0.00 0.00 45 1015.5
20260507180018 61 338 1.0 5.0 0.00 0.00 0.00 41 1015.6
20260507175038 61 338 1.0 9.0 0.00 0.00 0.00 43 1015.8
20260507174020 60 315 1.0 5.0 0.00 0.00 0.00 46 1016.0
20260507173038 60 0 1.0 4.0 0.00 0.00 0.00 47 1015.9
20260507172018 59 338 3.0 8.0 0.00 0.00 0.00 47 1016.2
20260507171019 59 315 1.0 4.0 0.00 0.00 0.00 44 1016.3
20260507170020 59 315 1.0 5.0 0.00 0.00 0.00 46 1016.4
20260507165018 58 338 2.0 8.0 0.00 0.00 0.00 46 1016.5
20260507164022 58 338 2.0 6.0 0.00 0.00 0.00 43 1016.6
20260507163018 58 338 2.0 5.0 0.00 0.00 0.00 41 1016.8
20260507162019 59 315 2.0 7.0 0.00 0.00 0.00 47 1016.8
20260507161038 58 0.0 3.0 0.00 0.00 0.00 45 1016.8
20260507160038 58 0 2.0 5.0 0.00 0.00 0.00 44 1016.7
20260507155018 58 270 2.0 5.0 0.00 0.00 0.00 50 1016.8
20260507154018 57 338 2.0 5.0 0.00 0.00 0.00 50 1016.8
20260507153020 57 338 2.0 7.0 0.00 0.00 0.00 48 1016.7
20260507152019 57 338 1.0 4.0 0.00 0.00 0.00 53 1016.6
20260507151039 56 338 1.0 6.0 0.00 0.00 0.00 50 1016.6
20260507150018 56 338 1.0 3.0 0.00 0.00 0.00 53 1016.5
20260507145018 55 338 2.0 7.0 0.00 0.00 0.00 55 1016.6
20260507144020 54 338 1.0 4.0 0.00 0.00 0.00 61 1016.7
20260507143039 53 338 2.0 6.0 0.00 0.00 0.00 54 1016.7
20260507142018 53 338 1.0 4.0 0.00 0.00 0.00 57 1016.6
20260507141018 52 338 2.0 5.0 0.00 0.00 0.00 54 1016.5
20260507140039 52 0 1.0 4.0 0.00 0.00 0.00 60 1016.6
20260507135018 51 338 2.0 5.0 0.00 0.00 0.00 55 1016.6
20260507134018 51 338 1.0 5.0 0.00 0.00 0.00 61 1016.5
20260507133018 50 315 1.0 4.0 0.00 0.00 0.00 62 1016.5
20260507132018 49 338 1.0 5.0 0.00 0.00 0.00 67 1016.5
20260507131018 48 338 1.0 4.0 0.00 0.00 0.00 71 1016.4
20260507130018 47 0.0 4.0 0.00 0.00 0.00 77 1016.5
20260507125019 46 0.0 3.0 0.00 0.00 0.00 84 1016.4
20260507124018 45 0.0 1.0 0.00 0.00 0.00 91 1016.4
20260507123020 45 0.0 0.0 0.00 0.00 0.00 95 1016.4
20260507122018 43 0.0 3.0 0.00 0.00 0.00 98 1016.4
20260507121019 43 0.0 0.0 0.00 0.00 0.00 98 1016.5
20260507120019 42 0.0 0.0 0.00 0.00 0.00 98 1016.4
20260507115018 42 0.0 0.0 0.00 0.00 0.00 98 1016.6
20260507114018 42 0.0 0.0 0.00 0.00 0.00 98 1016.5
20260507113018 41 0.0 0.0 0.00 0.00 0.00 98 1016.5
20260507112019 41 0.0 0.0 0.00 0.00 0.00 98 1016.4
20260507111018 41 0.0 0.0 0.00 0.00 0.00 98 1016.3
20260507110038 41 0.0 0.0 0.00 0.00 0.00 98 1016.1
20260507105038 41 0.0 0.0 0.00 0.00 0.00 98 1016.0
20260507104019 41 0.0 0.0 0.00 0.00 0.00 98 1015.9
20260507103018 42 0.0 0.0 0.00 0.00 0.00 98 1015.8
20260507102018 42 0.0 0.0 0.00 0.00 0.00 98 1015.8
20260507101018 42 0.0 0.0 0.00 0.00 0.00 98 1015.8
20260507100039 42 0.0 0.0 0.00 0.00 0.00 98 1015.8
20260507095018 42 0.0 0.0 0.00 0.00 0.00 98 1015.8
20260507094018 42 0.0 0.0 0.00 0.00 0.00 98 1015.8
20260507093019 42 0.0 0.0 0.00 0.00 0.00 98 1015.9
20260507092018 42 0.0 0.0 0.00 0.00 0.00 97 1015.8
20260507091020 42 0.0 0.0 0.00 0.00 0.00 97 1015.7
20260507090018 42 0.0 0.0 0.00 0.00 0.00 97 1015.5
20260507085018 43 0.0 0.0 0.00 0.00 0.00 97 1015.5
20260507084018 43 0.0 0.0 0.00 0.00 0.00 97 1015.3
20260507083019 43 0.0 0.0 0.00 0.00 0.00 97 1015.4
20260507082038 44 0.0 0.0 0.00 0.00 0.00 97 1015.3
20260507081018 44 0.0 0.0 0.00 0.00 0.00 97 1015.3
20260507080018 44 0.0 0.0 0.00 0.00 0.00 97 1015.2
20260507075018 44 0.0 0.0 0.00 0.00 0.00 97 1015.2
20260507074018 44 0.0 0.0 0.00 0.01 0.00 97 1015.3
20260507073019 44 0.0 0.0 0.00 0.02 0.00 97 1015.3
20260507072018 44 0.0 0.0 0.00 0.03 0.00 97 1015.3
20260507071038 44 0.0 0.0 0.00 0.04 0.00 97 1015.3
20260507070018 44 0.0 0.0 0.00 0.05 0.00 97 1015.3
20260507065039 44 0.0 0.0 0.00 0.07 0.00 97 1015.2
20260507064018 44 0.0 0.0 0.00 0.08 0.00 97 1015.4
20260507063039 44 0.0 0.0 0.00 0.09 0.00 97 1015.4
20260507062019 44 0.0 0.0 0.00 0.10 0.00 97 1015.4
20260507061019 44 0.0 0.0 0.00 0.11 0.00 97 1015.4
20260507060018 44 0.0 0.0 0.00 0.13 0.00 97 1015.5
20260507055018 44 0.0 0.0 0.00 0.13 0.00 96 1015.4
20260507054018 44 0.0 0.0 0.00 0.14 0.00 96 1015.4
20260507053018 45 0.0 0.0 0.00 0.16 0.00 96 1015.5
20260507052018 45 0.0 0.0 0.00 0.19 0.00 96 1015.4
20260507051018 45 0.0 0.0 0.00 0.23 0.00 96 1015.4
20260507050020 45 0.0 0.0 0.00 0.27 0.00 96 1015.4
20260507045038 46 0.0 0.0 0.00 0.30 0.00 96 1015.2
20260507044019 46 0.0 0.0 0.00 0.45 0.00 96 1015.3
20260507043018 46 0.0 0.0 0.00 0.49 0.00 95 1015.4
20260507042019 46 0.0 0.0 0.00 0.51 0.00 95 1015.4
20260507041018 46 0.0 0.0 0.00 0.58 0.00 95 1015.3
20260507040018 46 0.0 0.0 0.00 0.64 0.64 95 1015.5
20260507035018 47 0.0 0.0 0.00 0.64 0.64 95 1015.7
20260507034019 47 0.0 0.0 0.00 0.65 0.64 94 1015.7
20260507033018 47 0.0 0.0 0.00 0.66 0.64 94 1015.5
20260507032018 47 0.0 0.0 0.00 0.66 0.64 94 1015.4
20260507031019 47 0.0 0.0 0.00 0.70 0.64 94 1015.4
20260507030018 47 0.0 0.0 0.00 0.71 0.64 93 1015.2
20260507025019 48 0.0 0.0 0.00 0.71 0.64 93 1015.1
20260507024018 48 0.0 0.0 0.00 0.72 0.64 92 1015.0
20260507023039 49 0.0 0.0 0.00 0.72 0.64 91 1014.9
20260507022019 49 0.0 0.0 0.00 0.72 0.64 90 1014.9
20260507021018 50 0.0 0.0 0.00 0.72 0.64 89 1014.7
20260507020019 50 0.0 0.0 0.00 0.72 0.64 89 1014.6
20260507015039 51 0.0 0.0 0.00 0.72 0.64 88 1014.4
20260507014018 51 0.0 0.0 0.00 0.72 0.64 86 1014.3
20260507013018 52 0.0 0.0 0.00 0.72 0.64 85 1014.3
20260507012018 53 0.0 0.0 0.00 0.72 0.64 83 1014.5
20260507011018 53 0.0 0.0 0.00 0.72 0.64 80 1014.3
20260507010019 54 0.0 0.0 0.00 0.72 0.64 76 1014.3
20260507005019 55 0.0 0.0 0.00 0.72 0.64 71 1014.3
20260507004018 55 0.0 0.0 0.00 0.72 0.64 71 1014.4
20260507003019 56 0.0 0.0 0.00 0.72 0.64 69 1014.2
20260507002018 56 0.0 1.0 0.00 0.73 0.64 66 1014.2
20260507001018 56 0.0 1.0 0.00 0.73 0.64 65 1014.1
20260507000018 57 0.0 3.0 0.00 0.73 0.64 66 1013.9
20260506235038 57 0.0 1.0 0.00 0.73 0.64 65 1013.7
20260506234018 57 0.0 2.0 0.00 0.73 0.64 66 1013.6
20260506233018 58 0.0 2.0 0.00 0.74 0.64 65 1013.9
20260506232018 58 0.0 1.0 0.00 0.75 0.64 63 1013.8
20260506231018 58 0.0 1.0 0.00 0.77 0.64 65 1013.9
20260506230018 58 338 1.0 2.0 0.00 0.80 0.64 61 1013.9
20260506225019 58 338 1.0 5.0 0.00 0.83 0.64 62 1013.7
20260506224019 59 0.0 2.0 0.00 0.84 0.64 61 1013.2
20260506223018 59 0.0 2.0 0.00 0.86 0.64 64 1013.2
20260506222019 59 338 1.0 3.0 0.00 0.89 0.64 61 1013.2
20260506221018 59 338 1.0 4.0 0.00 0.89 0.64 60 1013.3
20260506220018 59 0.0 2.0 0.00 0.89 0.64 62 1013.2
20260506215018 59 338 1.0 3.0 0.00 0.89 0.64 60 1013.1
20260506214019 60 0.0 2.0 0.00 0.89 0.64 62 1013.4
20260506213018 60 338 1.0 2.0 0.00 0.89 0.64 62 1013.3
20260506212038 60 0.0 2.0 0.00 0.89 0.64 60 1013.7
20260506211018 60 338 1.0 4.0 0.00 0.89 0.64 58 1013.7
20260506210018 60 0.0 2.0 0.00 0.89 0.64 58 1013.4
20260506205019 60 338 1.0 3.0 0.00 0.89 0.64 61 1013.5
20260506204019 60 338 1.0 5.0 0.00 0.89 0.64 56 1013.8
20260506203019 61 338 1.0 3.0 0.00 0.89 0.64 55 1013.6
20260506202018 61 315 1.0 4.0 0.00 0.89 0.64 57 1013.3
20260506201018 61 338 1.0 5.0 0.00 0.89 0.64 61 1013.6
20260506200039 61 0.0 3.0 0.00 0.90 0.64 59 1013.7
20260506195019 61 338 1.0 4.0 0.00 0.90 0.64 58 1013.8
20260506194018 62 338 1.0 4.0 0.00 0.92 0.64 57 1013.9
20260506193038 62 338 1.0 7.0 0.00 0.93 0.64 59 1013.6
20260506192018 63 338 2.0 5.0 0.00 0.94 0.64 58 1013.4
20260506191018 62 338 1.0 4.0 0.00 0.97 0.64 57 1013.5
20260506190019 62 338 1.0 3.0 0.00 0.99 0.64 61 1013.7